Location: Izdebno
(52.6670°N, 16.2170°E)
Time: 03:20:01
(UTC+02:00)

SR - Pass Details

Date: 29 February 2024
Orbit: 577 x 862 km, 66.7° (Epoch: 22 April)

Event Time Altitude Azimuth Distance (km) Brightness Sun altitude
Rises 22:52:20 0° 318° (NW) 3,235 ? -42.3°
Reaches altitude 10° 22:54:54 10° 312° (NW) 2,257 ? -42.5°
Enters shadow 22:55:04 11° 312° (NW) 2,190 ? -42.5°
Maximum altitude 22:59:45 45° 241° (WSW) 946 - -42.8°
Drops below altitude 10° 23:04:13 10° 169° (S) 2,063 - -43.0°
Sets 23:06:28 0° 163° (SSE) 2,928 - -43.2°
